Weather History for KECS - June, 2013

Change the Weather History Date:

Friday, June 14, 2013

  Actual Average (KCUT) Record (KCUT)
Temperature  
Mean Temperature 66 °F 58 °F  
Max Temperature 78 °F 70 °F 88 °F (1956)
Min Temperature 53 °F 46 °F 22 °F (1969)
Degree Days  
Heating Degree Days 0 8  
Month to date heating degree days 138  
Since 1 June heating degree days 138  
Since 1 July heating degree days 8307  
Cooling Degree Days 0 1  
Month to date cooling degree days 2  
Year to date cooling degree days 3  
Since 1 June cooling degree days 2  
Growing Degree Days 16 (Base 50)    
Moisture  
Dew Point 45 °F    
Average Humidity 48    
Maximum Humidity 82    
Minimum Humidity 20    
Precipitation  
Precipitation 0.00 in 0.10 in 0.96 in (1976)
Month to date precipitation 1.68  
Year to date precipitation 8.79  
Sea Level Pressure  
Sea Level Pressure 29.94 in    
Wind  
Wind Speed 14 mph (NNW)    
Max Wind Speed 22 mph    
Max Gust Speed 33 mph    
Visibility 10 miles    
Events Thunderstorm    
T = Trace of Precipitation, MM = Missing Value Source: NWS Daily Summary

Daily Weather History Graph

Daily Weather History Graph

Search for Another Location

Airport or City:

Trip Planner

Search our weather history database for the weather conditions in past years. The results will help you decide how hot, cold, wet, or windy it might be!

Date:

Astronomy

Jun. 14, 2013 Rise Set
Actual Time 5:14 AM MDT 8:41 PM MDT
Civil Twilight 4:38 AM MDT 9:17 PM MDT
Nautical Twilight 3:50 AM MDT 10:04 PM MDT
Astronomical Twilight 2:50 AM MDT 11:04 PM MDT
Moon 11:01 AM MDT (6/14) No Moon Set
Length of Visible Light 16h 39m
Length of Day
15h 26m
Waxing Crescent, 31% of the Moon is Illuminated
Jun 14
Waxing Crescent
Jun 16
First Quarter
Jun 23
Full
Jun 29
Last Quarter
Jul 8
New

Hourly Weather History & Observations

Time (MDT) Temp. Dew Point Humidity Pressure Visibility Wind Dir Wind Speed Gust Speed Precip Events Conditions
12:15 AM 68.0 °F 51.8 °F 56% 29.88 in 10.0 mi North - - N/A   Clear
12:35 AM 64.4 °F 53.6 °F 68% 29.86 in 10.0 mi East 16.1 mph - N/A Thunderstorm Thunderstorm
12:55 AM 68.0 °F 51.8 °F 56% 29.85 in 10.0 mi East 17.3 mph 20.7 mph N/A   Clear
1:15 AM 68.0 °F 50.0 °F 52% 29.84 in 10.0 mi East 18.4 mph 28.8 mph N/A   Clear
1:35 AM 68.0 °F 50.0 °F 52% 29.83 in 10.0 mi ESE 18.4 mph 26.5 mph N/A   Clear
1:55 AM 68.0 °F 50.0 °F 52% 29.82 in 10.0 mi ESE 19.6 mph - N/A   Clear
2:15 AM 68.0 °F 48.2 °F 49% 29.81 in 10.0 mi ESE 17.3 mph 26.5 mph N/A   Clear
2:35 AM 68.0 °F 48.2 °F 49% 29.81 in 10.0 mi ESE 19.6 mph 24.2 mph N/A   Clear
2:55 AM 68.0 °F 46.4 °F 46% 29.80 in 10.0 mi ESE 20.7 mph 33.4 mph N/A   Clear
3:15 AM 68.0 °F 46.4 °F 46% 29.80 in 10.0 mi East 20.7 mph 29.9 mph N/A   Clear
3:35 AM 68.0 °F 46.4 °F 46% 29.84 in 10.0 mi SE 8.1 mph - N/A   Clear
3:55 AM 62.6 °F 50.0 °F 63% 29.86 in 10.0 mi West 6.9 mph - N/A   Clear
4:15 AM 60.8 °F 51.8 °F 72% 29.87 in 10.0 mi WNW 16.1 mph 21.9 mph N/A   Clear
4:35 AM 59.0 °F 51.8 °F 77% 29.87 in 10.0 mi NNW 16.1 mph 25.3 mph N/A   Clear
4:55 AM 55.4 °F 50.0 °F 82% 29.89 in 10.0 mi NNW 21.9 mph 31.1 mph N/A   Clear
5:15 AM 55.4 °F 50.0 °F 82% 29.91 in 10.0 mi NNW 19.6 mph 23.0 mph N/A   Clear
5:35 AM 55.4 °F 50.0 °F 82% 29.91 in 10.0 mi NW 21.9 mph 26.5 mph N/A   Mostly Cloudy
5:55 AM 55.4 °F 50.0 °F 82% 29.92 in 10.0 mi NNW 21.9 mph 31.1 mph N/A   Overcast
6:15 AM 53.6 °F 48.2 °F 82% 29.93 in 10.0 mi NW 16.1 mph 24.2 mph N/A   Scattered Clouds
6:35 AM 55.4 °F 50.0 °F 82% 29.93 in 10.0 mi NNW 18.4 mph 24.2 mph N/A   Clear
6:55 AM 59.0 °F 50.0 °F 72% 29.93 in 10.0 mi North 11.5 mph 17.3 mph N/A   Clear
7:15 AM 60.8 °F 50.0 °F 68% 29.93 in 10.0 mi NNW 18.4 mph 24.2 mph N/A   Clear
7:35 AM 60.8 °F 50.0 °F 68% 29.94 in 10.0 mi NW 10.4 mph - N/A   Clear
7:55 AM 62.6 °F 50.0 °F 63% 29.93 in 10.0 mi NW 8.1 mph - N/A   Clear
8:15 AM 64.4 °F 48.2 °F 56% 29.94 in 10.0 mi NW 11.5 mph - N/A   Clear
8:35 AM 66.2 °F 42.8 °F 43% 29.95 in 10.0 mi NW 15.0 mph 21.9 mph N/A   Clear
8:55 AM 64.4 °F 50.0 °F 59% 29.97 in 10.0 mi WNW 21.9 mph 26.5 mph N/A   Clear
9:15 AM 62.6 °F 50.0 °F 63% 29.98 in 10.0 mi WNW 19.6 mph 23.0 mph N/A   Clear
9:35 AM 62.6 °F 48.2 °F 59% 29.98 in 10.0 mi WNW 19.6 mph 27.6 mph N/A   Clear
9:55 AM 62.6 °F 50.0 °F 63% 29.99 in 10.0 mi WNW 19.6 mph 28.8 mph N/A   Clear
10:15 AM 64.4 °F 50.0 °F 59% 29.99 in 10.0 mi WNW 20.7 mph 27.6 mph N/A   Clear
10:35 AM 64.4 °F 48.2 °F 56% 29.99 in 10.0 mi WNW 15.0 mph 24.2 mph N/A   Clear
10:55 AM 66.2 °F 48.2 °F 52% 29.99 in 10.0 mi WNW 12.7 mph - N/A   Clear
11:15 AM 68.0 °F 46.4 °F 46% 29.99 in 10.0 mi NW 12.7 mph 17.3 mph N/A   Clear
11:35 AM 69.8 °F 41.0 °F 35% 29.99 in 10.0 mi NW 12.7 mph 18.4 mph N/A   Clear
11:55 AM 69.8 °F 41.0 °F 35% 30.00 in 10.0 mi NW 10.4 mph - N/A   Clear
12:15 PM 69.8 °F 41.0 °F 35% 30.00 in 10.0 mi NNW 9.2 mph - N/A   Clear
12:35 PM 71.6 °F 37.4 °F 29% 29.99 in 10.0 mi West 5.8 mph - N/A   Clear
12:55 PM 71.6 °F 41.0 °F 33% 29.99 in 10.0 mi WSW 6.9 mph - N/A   Clear
1:15 PM 71.6 °F 41.0 °F 33% 29.99 in 10.0 mi Calm Calm - N/A   Clear
1:35 PM 73.4 °F 39.2 °F 29% 29.99 in 10.0 mi West 8.1 mph - N/A   Clear
1:55 PM 71.6 °F 37.4 °F 29% 29.99 in 10.0 mi SSW 4.6 mph - N/A   Clear
2:15 PM 73.4 °F 41.0 °F 31% 29.98 in 10.0 mi Calm Calm - N/A   Clear
2:35 PM 73.4 °F 37.4 °F 27% 29.97 in 10.0 mi Calm Calm - N/A   Clear
2:55 PM 73.4 °F 39.2 °F 29% 29.96 in 10.0 mi SE 4.6 mph - N/A   Clear
3:15 PM 75.2 °F 41.0 °F 29% 29.95 in 10.0 mi North - - N/A   Clear
3:35 PM 77.0 °F 39.2 °F 26% 29.94 in 10.0 mi Calm Calm - N/A   Clear
3:55 PM 77.0 °F 41.0 °F 28% 29.94 in 10.0 mi North - - N/A   Clear
4:15 PM 77.0 °F 41.0 °F 28% 29.93 in 10.0 mi North - - N/A   Clear
4:35 PM 77.0 °F 41.0 °F 28% 29.92 in 10.0 mi North - - N/A   Clear
4:55 PM 77.0 °F 39.2 °F 26% 29.92 in 10.0 mi SSE 8.1 mph - N/A   Clear
5:15 PM 77.0 °F 41.0 °F 28% 29.91 in 10.0 mi SE 9.2 mph - N/A   Clear
5:35 PM 78.8 °F 41.0 °F 26% 29.91 in 10.0 mi North - - N/A   Clear
5:55 PM 78.8 °F 41.0 °F 26% 29.90 in 10.0 mi ESE 10.4 mph - N/A   Clear
6:15 PM 78.8 °F 37.4 °F 23% 29.90 in 10.0 mi ESE 8.1 mph - N/A   Clear
6:35 PM 78.8 °F 37.4 °F 23% 29.89 in 10.0 mi ESE 3.5 mph - N/A   Clear
6:55 PM 78.8 °F 33.8 °F 20% 29.90 in 10.0 mi East 5.8 mph - N/A   Clear
7:15 PM 78.8 °F 35.6 °F 21% 29.90 in 10.0 mi Calm Calm - N/A   Clear
7:35 PM 75.2 °F 41.0 °F 29% 29.91 in 10.0 mi NNW 12.7 mph - N/A   Clear
7:55 PM 71.6 °F 42.8 °F 35% 29.91 in 10.0 mi North 12.7 mph - N/A   Clear
8:15 PM 69.8 °F 42.8 °F 38% 29.92 in 10.0 mi North 13.8 mph 24.2 mph N/A   Clear
8:35 PM 68.0 °F 44.6 °F 43% 29.94 in 10.0 mi North 16.1 mph 21.9 mph N/A   Clear
8:55 PM 66.2 °F 42.8 °F 43% 29.98 in 10.0 mi North 6.9 mph 18.4 mph N/A   Clear
9:15 PM 64.4 °F 42.8 °F 45% 30.00 in 10.0 mi Calm Calm - N/A   Clear
9:35 PM 62.6 °F 44.6 °F 52% 30.02 in 10.0 mi NW 8.1 mph - N/A   Clear
9:55 PM 60.8 °F 44.6 °F 55% 30.03 in 10.0 mi NNW 10.4 mph - N/A   Clear
10:15 PM 60.8 °F 44.6 °F 55% 30.05 in 10.0 mi NNW 11.5 mph - N/A   Clear
10:35 PM 59.0 °F 44.6 °F 59% 30.06 in 10.0 mi NNW 11.5 mph - N/A   Clear
10:55 PM 59.0 °F 44.6 °F 59% 30.06 in 10.0 mi NNW 13.8 mph - N/A   Clear
11:15 PM 59.0 °F 44.6 °F 59% 30.06 in 10.0 mi NNW 16.1 mph 20.7 mph N/A   Scattered Clouds
11:35 PM 59.0 °F 44.6 °F 59% 30.06 in 10.0 mi NNW 16.1 mph - N/A   Scattered Clouds
11:55 PM 59.0 °F 44.6 °F 59% 30.06 in 10.0 mi North 13.8 mph - N/A   Scattered Clouds